DAL1152 KSFO-KLAX

Flight info

Callsign DAL1152
Flight time 0h 55m
Altitude 32000
Route WESLA5 SUSEY EBAYE BURGL IRNMN2
Aircraft A320/M-SDE3FGHIRWY/LB1

Departure

Time 2026-05-05 05:44
Airport San Francisco International Airport (KSFO)

Arrival

Time 2026-05-05 06:40
Airport Los Angeles International Airport (KLAX)
Time Latitude Longitude Altitude Speed Heading
2026-05-05 05:13 37.61553 -122.38274 22 ft 0 kts 218°
2026-05-05 05:30 37.61556 -122.38271 23 ft 3 kts 218°
2026-05-05 05:30 37.61577 -122.38250 24 ft 4 kts 218°
2026-05-05 05:31 37.61598 -122.38228 24 ft 4 kts 218°
2026-05-05 05:31 37.61603 -122.38224 25 ft 0 kts 218°
2026-05-05 05:34 37.61601 -122.38225 25 ft 2 kts 214°
2026-05-05 05:34 37.61595 -122.38216 24 ft 3 kts 127°
2026-05-05 05:34 37.61573 -122.38171 22 ft 5 kts 122°
2026-05-05 05:34 37.61556 -122.38137 22 ft 0 kts 121°
2026-05-05 05:36 37.61555 -122.38136 22 ft 1 kts 120°
2026-05-05 05:36 37.61542 -122.38088 22 ft 9 kts 98°
2026-05-05 05:36 37.61574 -122.38027 22 ft 8 kts 33°
2026-05-05 05:36 37.61619 -122.37995 23 ft 7 kts 29°
2026-05-05 05:37 37.61656 -122.37968 22 ft 5 kts 33°
2026-05-05 05:37 37.61675 -122.37933 22 ft 6 kts 72°
2026-05-05 05:37 37.61674 -122.37853 22 ft 10 kts 99°
2026-05-05 05:37 37.61665 -122.37775 24 ft 8 kts 97°
2026-05-05 05:38 37.61654 -122.37654 22 ft 18 kts 97°
2026-05-05 05:38 37.61639 -122.37505 22 ft 16 kts 98°
2026-05-05 05:38 37.61625 -122.37370 22 ft 15 kts 95°
2026-05-05 05:38 37.61609 -122.37249 22 ft 13 kts 112°
2026-05-05 05:39 37.61570 -122.37151 23 ft 12 kts 118°
2026-05-05 05:39 37.61531 -122.37060 24 ft 14 kts 118°
2026-05-05 05:39 37.61480 -122.36946 22 ft 14 kts 124°
2026-05-05 05:39 37.61412 -122.36848 22 ft 14 kts 133°
2026-05-05 05:40 37.61353 -122.36748 22 ft 14 kts 118°
2026-05-05 05:40 37.61309 -122.36646 22 ft 13 kts 118°
2026-05-05 05:40 37.61271 -122.36554 23 ft 11 kts 117°
2026-05-05 05:40 37.61235 -122.36469 22 ft 10 kts 118°
2026-05-05 05:41 37.61194 -122.36372 23 ft 14 kts 117°
2026-05-05 05:41 37.61151 -122.36269 22 ft 13 kts 117°
2026-05-05 05:41 37.61112 -122.36175 22 ft 12 kts 118°
2026-05-05 05:41 37.61086 -122.36114 22 ft 0 kts 118°
2026-05-05 05:42 37.61082 -122.36105 22 ft 7 kts 118°
2026-05-05 05:42 37.61049 -122.35997 22 ft 14 kts 92°
2026-05-05 05:43 37.61096 -122.35905 23 ft 12 kts 38°
2026-05-05 05:43 37.61171 -122.35896 22 ft 11 kts 344°
2026-05-05 05:43 37.61227 -122.35973 24 ft 15 kts 298°
2026-05-05 05:43 37.61366 -122.36312 24 ft 78 kts 298°
2026-05-05 05:44 37.61716 -122.37134 23 ft 132 kts 298°
2026-05-05 05:44 37.62221 -122.38319 72 ft 171 kts 298°
2026-05-05 05:44 37.62805 -122.39693 550 ft 183 kts 298°
2026-05-05 05:44 37.63424 -122.41165 1104 ft 201 kts 298°
2026-05-05 05:45 37.64131 -122.42793 1632 ft 219 kts 299°
2026-05-05 05:45 37.64880 -122.44491 2489 ft 224 kts 298°
2026-05-05 05:45 37.65644 -122.46217 3347 ft 228 kts 298°
2026-05-05 05:45 37.66426 -122.47986 4115 ft 234 kts 297°
2026-05-05 05:46 37.66925 -122.49995 4632 ft 252 kts 267°
2026-05-05 05:46 37.66356 -122.52085 5275 ft 260 kts 230°
2026-05-05 05:46 37.64877 -122.53376 6063 ft 266 kts 196°
2026-05-05 05:46 37.63013 -122.53449 6825 ft 274 kts 170°
2026-05-05 05:47 37.61161 -122.52793 7615 ft 280 kts 160°
2026-05-05 05:47 37.59333 -122.51895 8458 ft 283 kts 157°
2026-05-05 05:47 37.57486 -122.50984 9258 ft 288 kts 159°
2026-05-05 05:47 37.55574 -122.50139 10031 ft 294 kts 160°
2026-05-05 05:48 37.53574 -122.49305 10433 ft 314 kts 161°
2026-05-05 05:48 37.51454 -122.48426 10700 ft 334 kts 158°
2026-05-05 05:48 37.49311 -122.47124 11285 ft 342 kts 146°
2026-05-05 05:48 37.47419 -122.45296 12000 ft 344 kts 134°
2026-05-05 05:49 37.45798 -122.43138 12729 ft 347 kts 130°
2026-05-05 05:49 37.44117 -122.40842 12955 ft 367 kts 130°
2026-05-05 05:49 37.42358 -122.38439 13312 ft 380 kts 131°
2026-05-05 05:49 37.40547 -122.35975 13916 ft 385 kts 131°
2026-05-05 05:50 37.38718 -122.33490 14507 ft 389 kts 130°
2026-05-05 05:50 37.36877 -122.30987 15106 ft 392 kts 130°
2026-05-05 05:50 37.35013 -122.28456 15709 ft 395 kts 130°
2026-05-05 05:50 37.33137 -122.25909 16302 ft 398 kts 129°
2026-05-05 05:51 37.31254 -122.23356 16900 ft 401 kts 129°
2026-05-05 05:51 37.29342 -122.20767 17506 ft 405 kts 129°
2026-05-05 05:51 37.27420 -122.18171 18134 ft 407 kts 130°
2026-05-05 05:51 37.25486 -122.15564 18677 ft 409 kts 130°
2026-05-05 05:52 37.23541 -122.12942 19176 ft 412 kts 129°
2026-05-05 05:52 37.21589 -122.10305 19650 ft 414 kts 129°
2026-05-05 05:52 37.19623 -122.07646 20120 ft 417 kts 128°
2026-05-05 05:52 37.17643 -122.04975 20629 ft 418 kts 128°
2026-05-05 05:53 37.15656 -122.02303 21111 ft 420 kts 128°
2026-05-05 05:53 37.13658 -121.99618 21588 ft 422 kts 128°
2026-05-05 05:53 37.11646 -121.96920 21997 ft 425 kts 128°
2026-05-05 05:53 37.09619 -121.94200 22412 ft 427 kts 127°
2026-05-05 05:54 37.07587 -121.91472 22820 ft 430 kts 127°
2026-05-05 05:54 37.05536 -121.88724 23221 ft 433 kts 127°
2026-05-05 05:54 37.03476 -121.85968 23619 ft 435 kts 127°
2026-05-05 05:54 37.01404 -121.83199 23957 ft 437 kts 127°
2026-05-05 05:55 36.99322 -121.80417 24295 ft 439 kts 127°
2026-05-05 05:55 36.97228 -121.77619 24597 ft 441 kts 127°
2026-05-05 05:55 36.95127 -121.74814 24903 ft 443 kts 127°
2026-05-05 05:55 36.93013 -121.71993 25201 ft 445 kts 127°
2026-05-05 05:56 36.90888 -121.69163 25490 ft 447 kts 127°
2026-05-05 05:56 36.88760 -121.66331 25773 ft 448 kts 127°
2026-05-05 05:56 36.86622 -121.63491 26046 ft 450 kts 127°
2026-05-05 05:56 36.84470 -121.60632 26319 ft 451 kts 127°
2026-05-05 05:57 36.82322 -121.57777 26612 ft 452 kts 127°
2026-05-05 05:57 36.80163 -121.54907 26854 ft 454 kts 126°
2026-05-05 05:57 36.78001 -121.52037 27111 ft 455 kts 126°
2026-05-05 05:57 36.75862 -121.49200 27349 ft 455 kts 126°
2026-05-05 05:58 36.73695 -121.46332 27676 ft 454 kts 126°
2026-05-05 05:58 36.71534 -121.43475 28019 ft 453 kts 126°
2026-05-05 05:58 36.69374 -121.40626 28377 ft 451 kts 126°
2026-05-05 05:58 36.67219 -121.37789 28738 ft 450 kts 126°
2026-05-05 05:59 36.65069 -121.34965 29102 ft 448 kts 125°
2026-05-05 05:59 36.62926 -121.32152 29443 ft 448 kts 125°
2026-05-05 05:59 36.60789 -121.29344 29752 ft 447 kts 125°
2026-05-05 05:59 36.58652 -121.26533 30092 ft 446 kts 125°
2026-05-05 06:00 36.56524 -121.23731 30379 ft 446 kts 125°
2026-05-05 06:00 36.54392 -121.20927 30642 ft 446 kts 126°
2026-05-05 06:00 36.52258 -121.18125 30958 ft 445 kts 126°
2026-05-05 06:00 36.50132 -121.15335 31215 ft 445 kts 126°
2026-05-05 06:01 36.48003 -121.12543 31452 ft 446 kts 127°
2026-05-05 06:01 36.45868 -121.09750 31684 ft 447 kts 127°
2026-05-05 06:01 36.43724 -121.06946 31921 ft 448 kts 127°
2026-05-05 06:01 36.41600 -121.04112 32043 ft 449 kts 126°
2026-05-05 06:02 36.37496 -120.98246 32065 ft 451 kts 124°
2026-05-05 06:02 36.33458 -120.92287 32057 ft 452 kts 124°
2026-05-05 06:03 36.29119 -120.86601 32057 ft 456 kts 129°
2026-05-05 06:03 36.24594 -120.81089 32057 ft 456 kts 130°
2026-05-05 06:04 36.20040 -120.75608 32068 ft 456 kts 130°
2026-05-05 06:04 36.15523 -120.70103 32059 ft 456 kts 130°
2026-05-05 06:05 36.11058 -120.64622 32056 ft 455 kts 130°
2026-05-05 06:05 36.06555 -120.59119 32067 ft 455 kts 131°
2026-05-05 06:06 36.02045 -120.53621 32050 ft 455 kts 131°
2026-05-05 06:06 35.97534 -120.48132 32042 ft 455 kts 131°
2026-05-05 06:07 35.93010 -120.42653 32038 ft 456 kts 131°
2026-05-05 06:07 35.88479 -120.37172 32030 ft 457 kts 133°
2026-05-05 06:08 35.84710 -120.32604 32038 ft 458 kts 133°
2026-05-05 06:08 35.80172 -120.27104 32031 ft 458 kts 133°
2026-05-05 06:09 35.75606 -120.21603 32043 ft 459 kts 134°
2026-05-05 06:09 35.71039 -120.16112 32025 ft 460 kts 134°
2026-05-05 06:10 35.66353 -120.10739 32017 ft 462 kts 142°
2026-05-05 06:10 35.60940 -120.06487 32025 ft 462 kts 147°
2026-05-05 06:11 35.55450 -120.02366 32021 ft 462 kts 148°
2026-05-05 06:11 35.49968 -119.98243 32029 ft 462 kts 148°
2026-05-05 06:12 35.44481 -119.94113 32017 ft 462 kts 148°
2026-05-05 06:12 35.38997 -119.89990 32022 ft 462 kts 149°
2026-05-05 06:13 35.33509 -119.85877 32030 ft 462 kts 149°
2026-05-05 06:13 35.28112 -119.81700 32011 ft 463 kts 144°
2026-05-05 06:14 35.22994 -119.76922 32018 ft 463 kts 143°
2026-05-05 06:14 35.17881 -119.72145 32019 ft 463 kts 144°
2026-05-05 06:15 35.12759 -119.67355 32016 ft 463 kts 145°
2026-05-05 06:15 35.07637 -119.62580 32022 ft 463 kts 145°
2026-05-05 06:16 35.02506 -119.57813 32011 ft 464 kts 146°
2026-05-05 06:16 34.97375 -119.53046 31726 ft 464 kts 146°
2026-05-05 06:17 34.94806 -119.50665 30832 ft 464 kts 146°
2026-05-05 06:17 34.92238 -119.48287 29919 ft 463 kts 146°
2026-05-05 06:17 34.89666 -119.45922 28783 ft 464 kts 146°
2026-05-05 06:17 34.87069 -119.43578 27616 ft 465 kts 146°
2026-05-05 06:18 34.84455 -119.41247 26464 ft 467 kts 147°
2026-05-05 06:18 34.81852 -119.38939 25908 ft 456 kts 147°
2026-05-05 06:18 34.79355 -119.36725 25444 ft 445 kts 147°
2026-05-05 06:18 34.76851 -119.34502 24971 ft 435 kts 147°
2026-05-05 06:19 34.74466 -119.32379 24519 ft 427 kts 147°
2026-05-05 06:19 34.72057 -119.30246 24081 ft 419 kts 148°
2026-05-05 06:19 34.69713 -119.28192 23626 ft 412 kts 148°
2026-05-05 06:19 34.67440 -119.26212 23137 ft 405 kts 148°
2026-05-05 06:20 34.65154 -119.24225 22635 ft 399 kts 148°
2026-05-05 06:20 34.62908 -119.22281 22158 ft 395 kts 148°
2026-05-05 06:20 34.60670 -119.20349 21870 ft 386 kts 148°
2026-05-05 06:20 34.58523 -119.18502 21476 ft 380 kts 148°
2026-05-05 06:21 34.56348 -119.16634 20993 ft 377 kts 148°
2026-05-05 06:21 34.54247 -119.14813 20518 ft 375 kts 148°
2026-05-05 06:21 34.52115 -119.12933 20042 ft 373 kts 147°
2026-05-05 06:21 34.50057 -119.11106 19580 ft 371 kts 147°
2026-05-05 06:22 34.47984 -119.09265 19152 ft 368 kts 147°
2026-05-05 06:22 34.45923 -119.07437 18724 ft 367 kts 147°
2026-05-05 06:22 34.43868 -119.05617 18274 ft 364 kts 147°
2026-05-05 06:22 34.41824 -119.03821 17796 ft 362 kts 147°
2026-05-05 06:23 34.39785 -119.02045 17322 ft 360 kts 148°
2026-05-05 06:23 34.37748 -119.00286 16859 ft 358 kts 148°
2026-05-05 06:23 34.35723 -118.98543 16395 ft 356 kts 148°
2026-05-05 06:23 34.33710 -118.96808 15955 ft 354 kts 147°
2026-05-05 06:24 34.31730 -118.95053 15524 ft 353 kts 146°
2026-05-05 06:24 34.29774 -118.93282 15086 ft 351 kts 146°
2026-05-05 06:24 34.27830 -118.91503 14656 ft 349 kts 146°
2026-05-05 06:24 34.25895 -118.89732 14217 ft 348 kts 146°
2026-05-05 06:25 34.23973 -118.87973 13783 ft 347 kts 145°
2026-05-05 06:25 34.22066 -118.86216 13420 ft 342 kts 145°
2026-05-05 06:25 34.20203 -118.84498 13270 ft 330 kts 145°
2026-05-05 06:25 34.18403 -118.82839 13146 ft 320 kts 145°
2026-05-05 06:26 34.16662 -118.81230 12978 ft 311 kts 144°
2026-05-05 06:26 34.15003 -118.79583 12691 ft 308 kts 141°
2026-05-05 06:26 34.13412 -118.77871 12346 ft 306 kts 140°
2026-05-05 06:26 34.11851 -118.76131 11977 ft 305 kts 139°
2026-05-05 06:27 34.10301 -118.74396 11625 ft 304 kts 140°
2026-05-05 06:27 34.07197 -118.70968 10901 ft 300 kts 140°
2026-05-05 06:27 34.05688 -118.69321 10731 ft 292 kts 140°
2026-05-05 06:28 34.04231 -118.67595 10477 ft 289 kts 130°
2026-05-05 06:28 34.03204 -118.65559 10200 ft 288 kts 115°
2026-05-05 06:28 34.02670 -118.63251 9945 ft 286 kts 99°
2026-05-05 06:28 34.02452 -118.60873 9588 ft 285 kts 98°
2026-05-05 06:29 34.02234 -118.58509 9228 ft 283 kts 98°
2026-05-05 06:29 34.02013 -118.56166 8865 ft 281 kts 98°
2026-05-05 06:29 34.01791 -118.53835 8504 ft 279 kts 98°
2026-05-05 06:29 34.01570 -118.51529 8216 ft 274 kts 98°
2026-05-05 06:30 34.01354 -118.49294 8049 ft 265 kts 98°
2026-05-05 06:30 34.01149 -118.47136 7919 ft 254 kts 98°
2026-05-05 06:30 34.01132 -118.45049 7769 ft 247 kts 83°
2026-05-05 06:30 34.01471 -118.43033 7495 ft 244 kts 79°
2026-05-05 06:31 34.01819 -118.41046 7197 ft 242 kts 79°
2026-05-05 06:31 34.02163 -118.39070 6872 ft 240 kts 80°
2026-05-05 06:31 34.02502 -118.37107 6553 ft 239 kts 80°
2026-05-05 06:31 34.02820 -118.35147 6215 ft 237 kts 82°
2026-05-05 06:32 34.03053 -118.33194 6012 ft 234 kts 84°
2026-05-05 06:32 34.03254 -118.31243 6006 ft 235 kts 85°
2026-05-05 06:32 34.03450 -118.29283 6007 ft 236 kts 84°
2026-05-05 06:32 34.03651 -118.27316 5926 ft 237 kts 84°
2026-05-05 06:33 34.03859 -118.25335 5592 ft 238 kts 84°
2026-05-05 06:33 34.04070 -118.23377 5388 ft 234 kts 84°
2026-05-05 06:33 34.04281 -118.21439 5230 ft 233 kts 84°
2026-05-05 06:33 34.04487 -118.19505 5057 ft 233 kts 84°
2026-05-05 06:34 34.04497 -118.17581 4776 ft 228 kts 107°
2026-05-05 06:34 34.03725 -118.15976 4455 ft 222 kts 140°
2026-05-05 06:34 34.02468 -118.14914 4132 ft 220 kts 157°
2026-05-05 06:34 34.01007 -118.14505 4076 ft 217 kts 182°
2026-05-05 06:35 33.99540 -118.14855 4073 ft 216 kts 206°
2026-05-05 06:35 33.98327 -118.15881 4030 ft 211 kts 229°
2026-05-05 06:35 33.97590 -118.17357 3856 ft 203 kts 252°
2026-05-05 06:35 33.97347 -118.19013 3624 ft 200 kts 263°
2026-05-05 06:36 33.97184 -118.20671 3364 ft 199 kts 263°
2026-05-05 06:36 33.97020 -118.22323 3096 ft 198 kts 263°
2026-05-05 06:36 33.96859 -118.23927 2857 ft 188 kts 263°
2026-05-05 06:36 33.96704 -118.25460 2587 ft 182 kts 263°
2026-05-05 06:37 33.96552 -118.26968 2349 ft 181 kts 263°
2026-05-05 06:37 33.96405 -118.28426 2098 ft 169 kts 263°
2026-05-05 06:37 33.96267 -118.29793 1877 ft 161 kts 263°
2026-05-05 06:37 33.96132 -118.31119 1689 ft 158 kts 264°
2026-05-05 06:38 33.96000 -118.32422 1460 ft 156 kts 263°
2026-05-05 06:38 33.95869 -118.33719 1242 ft 155 kts 263°
2026-05-05 06:38 33.95737 -118.35016 1028 ft 157 kts 263°
2026-05-05 06:38 33.95606 -118.36307 811 ft 155 kts 263°
2026-05-05 06:39 33.95476 -118.37579 603 ft 151 kts 263°
2026-05-05 06:39 33.95348 -118.38834 408 ft 150 kts 262°
2026-05-05 06:39 33.95222 -118.40083 214 ft 150 kts 263°
2026-05-05 06:39 33.95104 -118.41257 121 ft 121 kts 263°
2026-05-05 06:40 33.95033 -118.41900 123 ft 34 kts 264°
2026-05-05 06:40 33.95021 -118.42033 124 ft 16 kts 264°
2026-05-05 06:40 33.95004 -118.42202 123 ft 22 kts 262°
2026-05-05 06:40 33.94983 -118.42385 126 ft 22 kts 260°
2026-05-05 06:41 33.94928 -118.42560 125 ft 23 kts 240°
2026-05-05 06:41 33.94855 -118.42674 124 ft 8 kts 228°
2026-05-05 06:41 33.94848 -118.42684 125 ft 0 kts 227°
2026-05-05 06:42 33.94847 -118.42685 125 ft 2 kts 226°
2026-05-05 06:42 33.94788 -118.42742 123 ft 15 kts 211°
2026-05-05 06:42 33.94689 -118.42780 123 ft 15 kts 178°
2026-05-05 06:42 33.94638 -118.42703 124 ft 8 kts 85°
2026-05-05 06:43 33.94642 -118.42643 126 ft 7 kts 85°
2026-05-05 06:43 33.94646 -118.42585 124 ft 10 kts 85°
2026-05-05 06:43 33.94658 -118.42466 126 ft 14 kts 79°
2026-05-05 06:43 33.94672 -118.42352 126 ft 13 kts 84°
2026-05-05 06:44 33.94681 -118.42248 126 ft 13 kts 81°
2026-05-05 06:44 33.94696 -118.42119 125 ft 16 kts 83°
2026-05-05 06:44 33.94708 -118.41991 126 ft 15 kts 83°
2026-05-05 06:44 33.94721 -118.41871 126 ft 15 kts 83°
2026-05-05 06:45 33.94736 -118.41722 126 ft 18 kts 83°
2026-05-05 06:45 33.94751 -118.41581 124 ft 16 kts 82°
2026-05-05 06:45 33.94766 -118.41450 124 ft 15 kts 82°
2026-05-05 06:45 33.94788 -118.41334 126 ft 14 kts 75°
2026-05-05 06:46 33.94801 -118.41226 126 ft 13 kts 84°
2026-05-05 06:46 33.94813 -118.41129 126 ft 11 kts 83°
2026-05-05 06:46 33.94820 -118.41039 126 ft 11 kts 85°
2026-05-05 06:46 33.94832 -118.40927 124 ft 14 kts 82°
2026-05-05 06:47 33.94843 -118.40807 126 ft 14 kts 84°
2026-05-05 06:47 33.94855 -118.40695 126 ft 13 kts 82°
2026-05-05 06:47 33.94839 -118.40608 123 ft 10 kts 157°
2026-05-05 06:47 33.94771 -118.40585 123 ft 10 kts 167°
2026-05-05 06:48 33.94708 -118.40577 124 ft 8 kts 180°
2026-05-05 06:48 33.94683 -118.40623 124 ft 7 kts 253°
2026-05-05 06:48 33.94679 -118.40640 126 ft 0 kts 256°
2026-05-05 06:49 33.94679 -118.40644 126 ft 1 kts 257°
2026-05-05 06:49 33.94678 -118.40647 126 ft 0 kts 257°